Tracking 20621 objects as of 30-Mar-2020
HD Live streaming from Space Station
objects crossing your sky now

INTERCOSMOS 25

Track INTERCOSMOS 25 now!
10-day predictions
INTERCOSMOS 25 is classified as:


NORAD ID: 21819
Int'l Code: 1991-086A
Perigee: 447.3 km
Apogee: 2,882.5 km
Inclination: 82.6 °
Period: 119.5 minutes
Semi major axis: 8035 km
RCS: 7.3989 m2 (large)
Launch date: December 18, 1991
Source: Commonwealth of Independent States (former USSR) (CIS)
Launch site: PLESETSK MISSILE AND SPACE COMPLEX (PKMTR)
aabbcc
Your satellite tracking list
Your tracking list is empty




NASA's NSSDC Master Catalog

Two Line Element Set (TLE):
1 21819U 91086A   20089.80564584 -.00000092 +00000-0 -27019-4 0  9990
2 21819 082.6082 173.9864 1515209 081.7980 295.1531 12.05182273234694
Source of the keplerian elements: AFSPC